{"data":{"norad_id":44530,"intl_designator":"2019-059C","name":"TAURUS-1 (JINNIUZUO 1)","alt_names":[],"object_type":"PAYLOAD","status":"ACTIVE","operator":null,"country":"PRC","launch_date":"2019-09-12","launch_site_code":"TAISC","launch_vehicle":null,"mission":null,"orbit_class":"UNKNOWN","rcs_meters":null,"size_class":null,"mass_kg":null,"dimensions":null,"purposes":[],"wikipedia_slug":null,"has_3d_model":false,"image_url":null,"decayed_at":null,"tle_current":{"epoch":"2026-09-20T04:04:10.789248Z","epoch_age_seconds":90159,"freshness":"FRESH","line1":"1 44530U 19059C   26263.16956932  .00002390  00000+0  38148-3 0  9990","line2":"2 44530  98.6507  74.0102 0008667  20.1016 340.0529 14.72920933372627","mean_motion":14.72920933,"eccentricity":0.0008667,"inclination_deg":98.6507,"raan_deg":74.0102,"arg_perigee_deg":20.1016,"mean_anomaly_deg":340.0529,"bstar":0.00038148,"rev_number":37262,"period_min":97.764921913836,"perigee_km":645.66594572137,"apogee_km":657.85156702547,"semimajor_km":7029.8957563734,"source":"CELESTRAK","updated_at":"2026-09-20T09:00:14.532499Z"}}}